Weather History for West Memphis, AR

Change the Weather History Date:

Saturday, February 1, 2014

  Actual Average Record
Temperature  
Mean Temperature 58 °F -  
Max Temperature 66 °F 51 °F 70 °F (1967)
Min Temperature 50 °F 32 °F 3 °F (1985)
Degree Days  
Heating Degree Days 7    
Growing Degree Days 8 (Base 50)    
Moisture  
Dew Point 49 °F    
Average Humidity 72    
Maximum Humidity 90    
Minimum Humidity 59    
Precipitation  
Precipitation 0.04 in - - ()
Sea Level Pressure  
Sea Level Pressure 29.93 in    
Wind  
Wind Speed 16 mph (South)    
Max Wind Speed 23 mph    
Max Gust Speed 30 mph    
Visibility 10 miles    
Events Rain    
Averages and records for this station are not official NWS values.
T = Trace of Precipitation, MM = Missing Value Source: NWS Daily Summary

Daily Weather History Graph

Daily Weather History Graph

Search for Another Location

Airport:

Trip Planner

Search our weather history database for the weather conditions in past years. The results will help you decide how hot, cold, wet, or windy it might be!

Date:

Astronomy

Feb. 01, 2014 Rise Set
Actual Time 6:59 AM CST 5:29 PM CST
Civil Twilight 6:33 AM CST 5:56 PM CST
Nautical Twilight 6:03 AM CST 6:26 PM CST
Astronomical Twilight 5:33 AM CST 6:56 PM CST
Moon 7:56 AM CST (2/1) 7:57 PM CST (2/1)
Length of Visible Light 11h 22m
Length of Day
10h 29m
Waxing Crescent, 5% of the Moon is Illuminated
Feb 1
Waxing Crescent
Feb 6
First Quarter
Feb 14
Full
Feb 22
Last Quarter
Mar 1
New

Hourly Weather History & Observations

Time (CST) Temp. Dew Point Humidity Pressure Visibility Wind Dir Wind Speed Gust Speed Precip Events Conditions
12:53 AM 55.0 °F 42.1 °F 62% 29.95 in 10.0 mi South 17.3 mph 27.6 mph N/A   Overcast
1:53 AM 54.0 °F 43.0 °F 66% 29.95 in 10.0 mi South 17.3 mph - N/A   Overcast
2:53 AM 54.0 °F 43.0 °F 66% 29.94 in 10.0 mi South 15.0 mph - N/A   Overcast
3:53 AM 54.0 °F 44.1 °F 69% 29.94 in 10.0 mi South 16.1 mph - N/A   Overcast
4:53 AM 54.0 °F 44.1 °F 69% 29.94 in 10.0 mi South 18.4 mph - N/A   Overcast
5:53 AM 53.1 °F 42.1 °F 66% 29.95 in 10.0 mi South 17.3 mph 25.3 mph N/A   Overcast
6:35 AM 51.8 °F 44.6 °F 76% 29.97 in 10.0 mi South 17.3 mph 24.2 mph N/A   Overcast
6:46 AM 51.8 °F 44.6 °F 76% 29.97 in 9.0 mi South 19.6 mph 26.5 mph N/A   Overcast
6:53 AM 51.1 °F 45.0 °F 80% 29.97 in 7.0 mi South 17.3 mph 26.5 mph N/A   Overcast
7:53 AM 50.0 °F 46.0 °F 86% 29.97 in 10.0 mi South 13.8 mph - N/A   Overcast
8:53 AM 52.0 °F 46.9 °F 83% 29.96 in 10.0 mi South 17.3 mph - N/A   Overcast
9:53 AM 54.0 °F 46.9 °F 77% 29.97 in 10.0 mi South 17.3 mph 21.9 mph N/A   Overcast
10:53 AM 57.0 °F 48.9 °F 74% 29.97 in 10.0 mi SSW 12.7 mph 20.7 mph N/A   Overcast
11:53 AM 59.0 °F 50.0 °F 72% 29.95 in 10.0 mi South 15.0 mph - N/A   Overcast
12:02 PM 59.0 °F 50.0 °F 72% 29.95 in 10.0 mi South 17.3 mph 21.9 mph N/A   Overcast
12:53 PM 62.1 °F 51.1 °F 67% 29.91 in 10.0 mi SSW 18.4 mph 26.5 mph N/A   Overcast
1:53 PM 64.9 °F 53.1 °F 65% 29.88 in 10.0 mi South 23.0 mph 29.9 mph N/A   Overcast
2:53 PM 66.9 °F 52.0 °F 59% 29.86 in 10.0 mi South 17.3 mph 28.8 mph N/A   Mostly Cloudy
3:53 PM 66.9 °F 52.0 °F 59% 29.86 in 10.0 mi South 16.1 mph - N/A   Mostly Cloudy
4:53 PM 66.9 °F 52.0 °F 59% 29.86 in 10.0 mi South 11.5 mph - N/A   Overcast
5:53 PM 64.0 °F 55.0 °F 73% 29.88 in 10.0 mi SSW 11.5 mph 27.6 mph N/A   Overcast
6:53 PM 63.0 °F 54.0 °F 72% 29.90 in 10.0 mi SSW 11.5 mph 19.6 mph 0.00 in   Overcast
7:53 PM 64.0 °F 53.1 °F 67% 29.90 in 10.0 mi SSW 8.1 mph - N/A   Overcast
8:53 PM 61.0 °F 54.0 °F 78% 29.90 in 10.0 mi SSW 6.9 mph - 0.00 in   Overcast
9:53 PM 61.0 °F 53.1 °F 75% 29.90 in 10.0 mi South 9.2 mph - N/A   Overcast
10:53 PM 59.0 °F 55.0 °F 87% 29.89 in 10.0 mi South 9.2 mph - 0.04 in   Overcast
11:53 PM 57.9 °F 55.0 °F 90% 29.90 in 9.0 mi Calm Calm - 0.00 in Rain Light Rain